Location: Strawberry
(45.6646°N, 111.9596°W)
Time: 11:39:33
(UTC+00:00)

XW-2B - Visible Passes

Search period start: 04 December 2022 00:00
Search period end: 14 December 2022 00:00
Orbit: 490 x 510 km, 97.5° (Epoch: 04 December)

Date Brightness Start Highest point End Pass type
(mag) Time Alt. Az. Time Alt. Az. Time Alt. Az.
04 Dec ? 00:28:13 10° SSE 00:31:48 53° ENE 00:35:23 10° N visible
04 Dec ? 02:04:34 10° WSW 02:05:52 12° W 02:07:11 10° WNW visible
04 Dec ? 13:28:42 10° NNE 13:32:15 51° E 13:35:48 10° S visible
05 Dec ? 01:43:25 10° SW 01:46:06 19° W 01:48:47 10° NW visible
05 Dec ? 13:09:22 10° NE 13:12:35 29° E 13:15:47 10° SSE visible
06 Dec ? 01:23:04 10° SSW 01:26:22 31° W 01:29:40 10° NNW visible
06 Dec ? 12:50:18 10° NE 12:52:50 18° E 12:55:22 10° SE visible
07 Dec ? 01:03:05 10° S 01:06:41 55° W 01:10:17 10° NNW visible
07 Dec ? 12:32:14 10° ENE 12:33:01 11° E 12:33:49 10° ESE visible
07 Dec ? 14:03:32 10° N 14:07:08 57° WNW 14:10:41 10° SSW visible
08 Dec ? 00:43:22 10° SSE 00:47:02 83° ENE 00:50:42 10° N visible
08 Dec ? 13:43:51 10° NNE 13:47:30 80° ESE 13:51:08 10° S visible
09 Dec ? 00:23:55 10° SSE 00:27:25 46° ENE 00:30:56 10° N visible
09 Dec ? 01:59:40 10° WSW 02:01:25 13° W 02:03:11 10° WNW visible
09 Dec ? 13:24:18 10° NNE 13:27:49 44° E 13:31:18 10° S visible
10 Dec ? 01:38:45 10° SW 01:41:36 21° W 01:44:27 10° NW visible
10 Dec ? 13:04:58 10° NE 13:08:03 26° E 13:11:08 10° SSE visible
11 Dec ? 01:18:26 10° SSW 01:21:49 35° W 01:25:12 10° NNW visible
11 Dec ? 12:45:57 10° NE 12:48:14 16° E 12:50:31 10° SE visible
11 Dec ? 14:18:45 10° N 14:22:08 37° WNW 14:25:31 10° SW visible
12 Dec ? 00:58:28 10° S 01:02:04 64° W 01:05:42 10° NNW visible
12 Dec ? 13:58:53 10° N 14:02:30 66° WNW 14:06:07 10° SSW visible
13 Dec ? 00:38:45 10° SSE 00:42:22 72° ENE 00:46:01 10° N visible
13 Dec ? 13:39:10 10° NNE 13:42:49 69° ESE 13:46:27 10° S visible
